Regional Weather Roundup
Issued by NWS

Home | Current Version | Previous Version | Graphics & Text | Print | Product List | Glossary On
Versions: 1 2 3 4 5 6 7 8 9 10 11 12 13 14 15 16 17 18 19 20 21 22 23 24 25 26 27 28 29 30 31 32 33 34 35 36 37 38 39 40 41 42 43 44 45 46 47 48 49 50
000
ASUS43 KLOT 290121
RWRIL

ILLINOIS REGIONAL WEATHER ROUNDUP
NATIONAL WEATHER SERVICE CHICAGO/ROMEOVILLE IL
800 PM CDT SAT MAR 28 2015

NOTE: "FAIR" INDICATES FEW OR NO CLOUDS BELOW 12,000 FEET WITH NO
SIGNIFICANT WEATHER AND/OR OBSTRUCTIONS TO VISIBILITY.

* THESE STATIONS ARE NOT UNDER NWS QUALITY CONTROL. THEY ALSO MAY NOT
  REPORT WEATHER SUCH AS PRECIPITATION OR FOG.

ILZ001-002-007-009-015-016-024-290200-
NORTHWEST ILLINOIS

CITY           SKY/WX    TMP DP  RH WIND       PRES   REMARKS
MOLINE         CLEAR     35  13  40 S5        30.23S WCI  31
STERLING*      CLEAR     36  14  41 SE5       30.26R WCI  32
SAVANNA*       CLEAR     32  18  57 S7        30.24S WCI  26
$$

ILZ003-004-008-010-011-017-018-290200-
NORTH CENTRAL ILLINOIS

CITY           SKY/WX    TMP DP  RH WIND       PRES   REMARKS
ROCKFORD       CLEAR     34  15  46 S5        30.27R WCI  30
FREEPORT*      CLEAR     28  17  64 S6        30.26S WCI  21
ROCHELLE*      CLEAR     30  21  68 S6        30.26S WCI  24
DE KALB*       CLEAR     30  16  55 S5        30.26R WCI  25
PERU*          CLEAR     36  13  39 S7        30.27S WCI  30
$$

ILZ005-006-012>014-019>023-290200-
NORTHEAST ILLINOIS

CITY           SKY/WX    TMP DP  RH WIND       PRES   REMARKS
CHICAGO-OHARE  CLEAR     30   9  41 SE13      30.27F WCI  20
CHICAGO-MIDWAY CLEAR     31  10  41 E10       30.30S WCI  22
AURORA         CLEAR     32  14  47 S3        30.27R
LANSING*       CLEAR     28  10  47 E6        30.30S WCI  22
JOLIET*        CLEAR     34  10  37 SE6       30.28S WCI  29
WAUKEGAN       CLEAR     26  13  57 SE7       30.27S WCI  18
DUPAGE AIRPORT CLEAR     33   9  36 SE8       30.26S WCI  26
KANKAKEE*      CLEAR     34  12  40 SE3       30.30R
WHEELING       CLEAR     29   7  39 SE6       30.30S WCI  23
MORRIS*        CLEAR     33  10  38 SE5       30.27R WCI  29
ROMEOVILLE*    CLEAR     31  10  40 SE7       30.28S WCI  24
NORTHERLY ISL    N/A     28  12  51 SE8         N/A  WCI  20
$$

LMZ740>746-290200-
SOUTHERN LAKE MICHIGAN

STATION/POSITION SKY/WX   TEMP    WIND        PRES    VSBY  WAVE
                          AIR SEA DIR/SP/G                  HT/PER
                          (F)     (DEG/KT/KT) (MB)    (MI)  (FT/S)
HARRISON CRIB              28     130/ 10/ 12   N/A
BURNHAM HARBOR             28     120/  5/  8   N/A
CALUMET HARBOR             29      70/  5/  7 1025.1S
BURNS HARBOR               28      40/  5/  8 1027.1S
MICHIGAN CITY              26      30/  3/  4   N/A
$$

ILZ025>027-034>036-040-047-049-050-058-095>099-290200-
WEST-CENTRAL ILLINOIS

CITY           SKY/WX    TMP DP  RH WIND       PRES   REMARKS
QUINCY         CLEAR     37  19  48 SE9       30.23R WCI  30
GALESBURG*     CLEAR     34  15  46 SE3       30.24S
MACOMB*        CLEAR     33  20  59 S7        30.27R WCI  27
JACKSONVILLE*  CLEAR     36  22  55 E7        30.26S WCI  31
PITTSFIELD*    CLEAR     37  21  53 E6        30.25S WCI  32
$$

ILZ028>032-037-038-041>044-048-051>054-059>061-290200-
CENTRAL ILLINOIS

CITY           SKY/WX    TMP DP  RH WIND       PRES   REMARKS
PONTIAC        CLEAR     32  19  59 SE6       30.29R WCI  26
BLOOMINGTON    CLEAR     33  16  50 SE5       30.28S WCI  28
DECATUR        CLEAR     36  18  48 SE5       30.29R WCI  32
PEORIA         CLEAR     36  15  42 S6        30.27S WCI  31
LACON*         CLEAR     35  13  41 SE7       30.26S WCI  29
LINCOLN*       CLEAR     36  19  51 S3        30.29R
SPRINGFIELD    CLEAR     34  20  56 SE8       30.28S WCI  27
TAYLORVILLE    CLEAR     34  21  60 E5        30.29R WCI  30
$$

ILZ033-039-045-046-055>057-062-063-290200-
EAST-CENTRAL ILLINOIS

CITY           SKY/WX    TMP DP  RH WIND       PRES   REMARKS
CHAMPAIGN      CLEAR     32  15  49 SE5       30.29R WCI  27
DANVILLE*      CLEAR     33  15  47 CALM      30.27S
RANTOUL*       CLEAR     36  16  44 E3        30.29R
MATTOON        CLEAR     35  18  49 CALM      30.29R
PARIS*         CLEAR     33  19  57 CALM      30.31R
$$

ILZ079-100>102-290200-
SOUTHWEST ILLINOIS

CITY           SKY/WX    TMP DP  RH WIND       PRES   REMARKS
ALTON          CLEAR     37  12  35 SE9       30.28S WCI  31
BELLEVILLE     CLEAR     38  23  54 E6        30.27S WCI  34
CAHOKIA*       CLEAR     39  21  48 SE6       30.27S WCI  35
SPARTA*        CLEAR     37  21  51 E6        30.29S WCI  33
$$

ILZ064>066-069>071-074>076-080>082-084>086-088>090-092>094-290200-
SOUTH-CENTRAL ILLINOIS

CITY           SKY/WX    TMP DP  RH WIND       PRES   REMARKS
CARBONDALE     CLEAR     39  14  36 E3        30.29R
CAIRO*         CLEAR     41  21  44 E3        30.29R
EFFINGHAM*     CLEAR     35  20  55 CALM      30.31S
MARION         CLEAR     39  19  45 E5        30.30R
MT. VERNON     CLEAR     34  16  47 CALM      30.31R
CENTRALIA*     CLEAR     38  16  40 E3        30.29S
SALEM*         CLEAR     39  18  42 CALM      30.30S
METROPOLIS*    CLEAR     39  23  52 CALM      30.29R
$$

ILZ067-068-072-073-078-083-087-091-290200-
SOUTHEAST ILLINOIS

CITY           SKY/WX    TMP DP  RH WIND       PRES   REMARKS
LAWRENCEVILLE  CLEAR     35  20  54 E5        30.32R WCI  31
FLORA*         CLEAR     35  22  59 E3        30.31S
FAIRFIELD*     CLEAR     36  19  51 CALM      30.30R
HARRISBURG*    CLEAR     37  24  57 E5        30.32R WCI  34
ROBINSON*      CLEAR     32  21  63 CALM      30.33R
CARMI*         CLEAR     34  25  69 E3        30.31R
$$

ABBREVIATIONS USED IN REMARKS
   TC - TEMPERATURE IN CELSIUS
  WCI - WIND CHILL INDEX
   HX - HEAT INDEX
  VSB - VISIBILITY
$$



USA.gov is the U.S. government's official web portal to all federal, state and local government web resources and services.